Flag for U.S.A. Weather past 2 weeks in Woodstock, New York, U.S.A.

Now
60 °F

Overcast.


Feels Like: 60 °F
Forecast: 47 / 71 °F
Wind: 5 mph from North

Location: Dutchess County Airport

Current Time: May 6, 2015 at 10:30:25 AM

Latest Report: May 6, 2015 at 9:53 AM


Visibility: 10 mi

Pressure: 30.30 "Hg

Humidity: 72%

Dew point: 51 °F

Location of WoodstockLocation

Historic Weather in Woodstock — Graph

°F

Woodstock temperature yesterday

Maximum temperature yesterday: 83 °F (at 4:53 PM)
Minimum temperature yesterday: 61 °F (at 5:53 AM)
Average temperature yesterday: 73 °F

Past Weeks' High & Low Weather Summary

 TemperatureHumidityPressure
High86 °F (May 4, 2:53 PM)90% (Apr 21, 8:03 AM)30.30 "Hg (Apr 21, 8:03 AM)
Low28 °F (Apr 25, 4:53 AM)17% (May 4, 12:53 PM)29.48 "Hg (Apr 22, 2:53 PM)
Average56 °F50%29.84 "Hg
* Reported Apr 21 8:03 AM — May 6 8:53 AM, Woodstock, Weather by CustomWeather, © 2015

Note: Actual official high and low records may vary slightly from our data, if they occured in-between our weather recording intervals... More about our weather records

Advertising

Woodstock weather history for previous 24 hours

 ConditionsComfort  
Time TempWeatherWind HumidityBarometerVisibility
8:53 AM
Wed, May 6
57 °FOvercast.No wind81%30.30 "Hg10 mi
7:53 AM57 °FLight rain. Overcast.3 mph74%30.29 "Hg10 mi
6:53 AM57 °FLight rain. Overcast.No wind78%30.25 "Hg10 mi
5:53 AM62 °FOvercast.6 mph48%30.24 "Hg10 mi
4:53 AM62 °FOvercast.6 mph52%30.22 "Hg10 mi
3:53 AM63 °FClear.No wind45%30.21 "Hg10 mi
2:53 AM60 °FClear.No wind67%30.20 "Hg10 mi
1:53 AM62 °FPassing clouds.No wind62%30.20 "Hg10 mi
12:53 AM64 °FClear.No wind56%30.20 "Hg10 mi
11:53 PM
Tue, May 5
65 °FClear.No wind51%30.19 "Hg10 mi
10:53 PM69 °FClear.3 mph39%30.19 "Hg10 mi
9:53 PM71 °FClear.3 mph34%30.17 "Hg10 mi
8:53 PM73 °FSunny.3 mph32%30.15 "Hg10 mi
7:53 PM76 °FSunny.8 mph36%30.12 "Hg10 mi
6:53 PM81 °FSunny.10 mph24%30.10 "Hg10 mi
5:53 PM82 °FPassing clouds.6 mph31%30.09 "Hg10 mi
4:53 PM83 °FSunny.3 mph32%30.10 "Hg10 mi
3:53 PM80 °FSunny.7 mph35%30.11 "Hg10 mi
2:53 PM78 °FPassing clouds.No wind35%30.14 "Hg10 mi
1:53 PM80 °FSunny.5 mph35%30.16 "Hg10 mi
12:53 PM78 °FPassing clouds.No wind35%30.17 "Hg10 mi
11:53 AM77 °FSunny.3 mph39%30.20 "Hg10 mi
10:53 AM75 °FSunny.6 mph45%30.20 "Hg10 mi
Weather by CustomWeather, © 2015

See weather overviewHow to use our weather pages